Location: Home
(42.5358°N, 72.7383°W)
Time: 05:56:20
(UTC-04:00)

COSMOS 2251 DEB - Pass Details

Date: 04 July 2022
Orbit: 769 x 1233 km, 74.1° (Epoch: 15 August)

Event Time Altitude Azimuth Distance (km) Brightness Sun altitude
Exits shadow 03:24:13 11° 262° (W) 2,593 ? -16.1°
Maximum altitude 03:28:36 22° 309° (NW) 2,058 ? -15.7°
Drops below altitude 10° 03:33:47 10° 358° (N) 2,947 ? -15.1°
Sets 03:37:17 0° 13° (NNE) 3,987 ? -14.7°
